Location: Bodham
(52.9000°N, 1.1667°E)
Time: 14:42:13
(UTC+00:00)

Cosmos 2112 Rocket - Pass Details

Date: 22 October 2025
Orbit: 753 x 782 km, 74.0° (Epoch: 13 November)

Event Time Altitude Azimuth Distance (km) Brightness Sun altitude
Exits shadow 02:11:43 - 344° (NNW) 2,812 7.2 -38.3°
Reaches altitude 10° 02:13:43 10° 359° (N) 2,314 6.8 -38.1°
Maximum altitude 02:16:42 15° 34° (NE) 1,975 6.7 -37.7°
Drops below altitude 10° 02:19:40 10° 69° (ENE) 2,298 7.1 -37.4°
Sets 02:23:06 0° 93° (E) 3,215 7.8 -37.0°
